Regional Weather Roundup
Issued by NWS Memphis, TN

Home | Current Version | Previous Version | Text Only | Print | Product List | Glossary On
Versions: 1 2 3 4 5 6 7 8 9 10 11 12 13 14 15 16 17 18 19 20 21 22 23 24 25 26 27 28 29 30 31 32 33 34 35 36 37 38 39 40 41 42 43 44 45 46 47 48 49 50
000
ASUS44 KMEG 272200
RWRMEG
MEMPHIS CWA HOURLY WEATHER ROUNDUP
NATIONAL WEATHER SERVICE MEMPHIS TN
400 PM CST MON FEB 27 2017

...WEST TENNESSEE...

CITY           SKY/WX    TMP DP  RH WIND       PRES   REMARKS
MEMPHIS INTL   MOSUNNY   66  50  56 S13       30.10R
NWS MEMPHIS      N/A     68 N/A N/A MISG        N/A
JACKSON        SUNNY     64  48  56 SE6       30.10F
UNION CITY     SUNNY     66  43  42 CALM      30.07S
PARIS          SUNNY     63  45  51 S7        30.11R


...EASTERN ARKANSAS...

CITY           SKY/WX    TMP DP  RH WIND       PRES   REMARKS
JONESBORO      MOSUNNY   62  53  72 S12       30.06F
WEST MEMPHIS   SUNNY     65  53  65 S17       30.08S
BATESVILLE     CLOUDY    57  50  77 SE10      30.06S
NEWPORT        CLOUDY    59  53  80 S12       30.07S
WALNUT RIDGE   PTSUNNY   61  48  63 S13       30.06F
BLYTHEVILLE    SUNNY     67  51  56 S10G17    30.07F
SEARCY         CLOUDY    59  54  83 SE8       30.07F
STUTTGART      CLOUDY    61  48  63 SE9       30.07F
PINE BLUFF     CLOUDY    58  55  90 S12       30.06S
MONTICELLO     CLOUDY    56  54  93 N8        30.08R


...NORTH MISSISSIPPI...

CITY           SKY/WX    TMP DP  RH WIND       PRES   REMARKS
TUPELO         CLOUDY    58  51  78 SE9       30.15R
BATESVILLE     CLOUDY    59  52  75 S5        30.13F
TUNICA         CLOUDY    61  52  72 S9        30.10F
GREENWOOD      LGT RAIN  59  55  87 SE6       30.10F
COLUMBUS       CLOUDY    57  54  88 E6        30.13F
STARKVILLE     CLOUDY    55  54  94 SW5       30.18R


...SOUTHEAST MISSOURI...

CITY           SKY/WX    TMP DP  RH WIND       PRES   REMARKS
KENNETT        MOSUNNY   66  52  59 S12G20    30.06S HAZE
MALDEN         CLOUDY    64  50  59 S13       30.07S
WEST PLAINS    PTSUNNY   63  44  50 SE13      30.00S
POPLAR BLUFF   MOSUNNY   60  51  72 S13       30.05S
CAPE GIRARDEAU SUNNY     62  48  60 S14       30.05F


...NORTHWEST ALABAMA...

CITY           SKY/WX    TMP DP  RH WIND       PRES   REMARKS
MUSCLE SHOALS  CLOUDY    60  48  64 E5        30.16S


...MIDDLE TENNESSEE...

CITY           SKY/WX    TMP DP  RH WIND       PRES   REMARKS
NASHVILLE      MOSUNNY   62  41  46 S12       30.16S
CLARKSVILLE    SUNNY     63  42  46 S8        30.11F
COLUMBIA       SUNNY     57  50  77 S9        30.14S


...WESTERN KENTUCKY...

CITY           SKY/WX    TMP DP  RH WIND       PRES   REMARKS
PADUCAH        SUNNY     64  46  52 S9        30.07F
FORT CAMPBELL  SUNNY     64  43  45 S5        30.11S HAZE


...CENTRAL ARKANSAS...

CITY           SKY/WX    TMP DP  RH WIND       PRES   REMARKS
LITTLE ROCK    CLOUDY    58  55  90 SE8       30.05F


SKY/WX REPORTED AS FAIR MEANS FEW OR NO CLOUDS BELOW
12 THOUSAND FEET.




USA.gov is the U.S. government's official web portal to all federal, state and local government web resources and services.